Dewpoint
58 58 58 57 57 56 56 56 57 57 57 57 58 58 59 58 55 38 33 42 52 58 60 51 40 34 33 31 32 34 26 21 22 22 22 21 21 23 22 20 32 35 40 42 43
58 58 58 58 57 56 56 56 55 56 57 58 58 58 58 57 42 35 45 55 55 59 45 35 26 27 25 28 28 32 26 22 26 24 20 21 21 22 23 25 33 40 41 42 43
58 57 57 57 57 56 56 56 56 56 58 58 58 58 57 52 32 29 55 59 60 60 45 41 36 30 25 23 25 26 23 28 29 29 25 24 22 24 25 24 25 39 40 41 41
58 57 57 57 57 56 56 56 56 57 57 57 57 58 55 43 21 31 58 58 60 49 43 36 30 25 23 20 25 23 26 29 30 28 27 25 25 24 25 25 26 35 41 41 42
57 57 56 56 56 56 56 56 56 57 56 56 57 56 41 26 28 33 54 48 43 42 38 34 26 24 21 23 24 23 25 26 28 27 26 27 26 24 24 26 30 38 41 42 42
58 57 56 56 56 56 56 56 56 57 56 56 56 53 36 23 30 34 38 39 39 37 35 34 30 27 24 24 23 25 27 27 28 27 26 25 25 25 25 28 35 38 41 42 43
57 57 56 55 55 55 55 56 56 56 56 56 55 41 28 24 32 33 35 38 38 38 33 35 35 27 27 25 28 28 26 25 24 24 25 24 22 24 27 28 35 40 43 43 43
56 57 56 55 55 55 55 55 55 55 56 55 54 35 25 34 33 32 35 38 37 35 33 33 34 28 27 26 25 23 24 23 22 25 25 23 20 24 29 27 32 40 42 43 43
57 57 56 55 55 55 55 55 55 55 55 54 38 33 27 41 32 32 35 35 37 37 36 26 33 28 30 20 21 20 19 22 22 25 24 23 22 26 30 29 28 40 41 41 40
57 57 57 56 55 54 54 55 52 50 45 39 28 29 30 29 33 33 34 37 35 36 36 35 34 27 26 27 24 20 18 20 20 23 25 23 22 30 31 29 29 39 40 40 40
56 56 56 56 55 55 48 40 36 35 30 29 29 29 29 31 35 33 35 35 36 29 28 32 28 21 23 24 24 22 19 18 20 24 24 22 23 30 31 31 34 38 39 39 39
56 56 56 56 55 54 46 34 38 39 25 32 30 30 30 32 31 32 36 32 32 24 29 27 23 26 28 28 24 21 19 18 20 24 23 22 22 28 32 32 37 39 38 38 38
56 56 55 55 54 47 42 41 47 45 32 30 30 30 30 33 30 29 34 33 29 27 28 25 26 28 26 24 23 21 17 21 20 24 25 24 21 30 32 35 38 39 39 38 39
55 56 55 55 42 40 40 46 47 47 30 30 30 32 32 34 31 33 34 32 30 27 26 25 27 26 25 26 23 20 25 25 25 22 14 22 15 21 30 33 37 37 37 38 38
55 56 55 54 41 39 43 45 46 40 20 29 29 32 32 31 32 31 34 33 27 26 29 27 27 27 27 26 25 23 27 24 25 23 22 22 19 17 30 31 33 36 37 38 39
55 55 55 43 43 41 45 47 45 28 18 27 30 29 30 31 30 32 33 33 33 29 29 29 32 28 27 27 26 27 27 26 27 24 19 21 19 17 27 28 30 35 37 38 38
55 55 54 43 39 43 46 43 24 25 25 25 27 29 30 28 29 29 29 27 29 27 28 28 27 27 28 26 29 26 25 21 19 21 18 20 19 20 22 26 28 33 37 38 38
55 54 52 41 44 46 43 33 21 25 26 29 27 28 28 28 28 28 28 26 27 29 29 26 24 26 27 26 23 23 22 21 14 15 18 20 18 18 25 31 30 34 36 37 37
54 47 46 45 47 45 35 27 24 29 29 26 26 27 27 29 28 27 26 27 26 26 27 27 26 26 27 27 26 24 23 23 18 19 18 19 20 22 29 30 29 30 34 35 35
50 46 47 45 44 42 33 29 29 31 28 26 22 26 26 27 27 26 25 26 26 27 26 25 24 26 26 28 27 25 24 20 21 14 17 19 20 20 24 28 30 30 32 33 32
47 46 45 45 43 37 28 27 31 29 28 26 24 26 28 29 28 27 26 25 27 27 26 25 27 25 25 25 25 24 23 21 22 21 17 15 19 23 23 27 29 30 32 32 29
47 41 44 44 33 33 30 35 33 28 30 27 29 27 29 29 29 27 25 26 27 28 26 29 26 24 24 24 24 25 24 21 21 19 20 17 20 24 25 27 29 29 28 28 26
41 44 46 44 33 33 33 29 29 29 28 28 28 31 30 30 28 27 25 28 28 27 28 28 27 25 26 26 23 22 23 22 24 24 21 16 21 24 26 25 26 27 27 25 22
42 36 45 41 39 35 31 29 27 32 30 30 30 30 30 30 30 28 26 29 27 28 35 33 29 27 23 25 26 24 23 23 22 24 22 22 22 24 23 24 26 25 24 20 18
43 38 40 39 37 35 31 31 28 27 30 30 29 29 30 29 30 29 28 27 29 33 27 29 28 27 29 29 29 29 28 24 21 23 25 26 25 27 28 28 24 20 19 19 15
38 38 37 35 36 35 35 30 30 30 28 27 29 30 30 30 30 30 29 27 27 29 26 27 28 27 28 29 27 28 29 30 28 25 24 26 27 28 19 18 18 19 19 18 14
45 41 38 36 34 33 33 32 30 31 30 29 29 31 29 32 33 32 31 30 30 28 27 26 28 26 25 25 27 25 27 28 29 30 30 28 29 19 18 19 20 19 19 14 14
Lifted_Index
10 10 10 10 10 10 10 10 10 10 10 10 10 10 10 11 12 12 11 10 9 8 8 10 10 10 10 10 9 8 7 6 6 7 8 9 10 11 11 11 11 10 9 9 9
10 10 10 10 10 10 10 10 10 10 10 10 10 10 10 11 12 12 11 10 9 8 9 10 11 10 10 9 9 8 7 7 7 8 9 9 10 11 11 10 10 10 10 10 10
11 11 11 10 10 10 11 11 11 11 10 10 10 10 11 11 11 11 11 10 9 9 11 11 11 10 9 8 8 8 7 8 9 9 10 10 10 11 11 10 11 10 10 10 10
11 11 11 11 11 11 11 11 11 11 11 11 11 11 12 11 10 11 11 11 10 10 11 11 10 9 8 8 8 8 8 9 10 10 10 10 11 11 11 11 11 10 10 10 10
11 11 11 11 11 11 12 12 11 11 12 12 11 12 11 10 11 12 13 12 12 11 11 11 10 9 8 8 8 8 9 10 10 11 11 11 10 11 11 12 11 10 10 9 10
11 11 12 12 12 12 12 12 12 12 12 12 12 12 11 10 12 13 13 13 13 12 12 11 10 9 9 8 9 9 9 9 10 10 10 10 10 10 11 11 11 10 9 9 9
11 11 12 12 13 13 13 13 13 13 13 13 12 12 11 11 13 13 13 13 13 13 12 11 11 10 10 9 9 9 8 9 9 10 10 9 8 9 10 10 10 10 9 9 9
11 11 12 12 13 13 14 14 14 14 13 13 13 11 11 12 13 13 13 13 13 13 12 11 11 10 10 9 9 8 7 7 8 9 9 8 7 8 9 10 10 10 10 10 9
11 11 11 12 13 13 14 14 14 14 14 13 12 11 10 11 12 12 12 12 12 12 11 11 10 9 9 8 6 6 5 5 6 8 8 7 6 8 9 10 10 10 10 10 10
11 11 11 12 13 13 14 13 13 13 13 13 12 11 10 10 11 12 12 12 11 11 10 9 8 8 7 6 5 4 4 4 5 7 7 6 6 7 9 10 10 10 10 10 10
11 11 11 12 13 13 13 13 12 11 11 11 11 10 10 10 10 11 11 11 10 9 8 7 7 6 7 6 6 5 4 4 6 7 7 6 6 7 8 9 9 10 10 10 10
12 11 11 11 12 13 13 12 12 11 10 10 10 10 10 10 9 10 10 9 8 7 7 6 6 6 7 7 6 6 5 5 6 7 7 6 5 6 7 8 9 10 10 10 10
12 12 11 11 11 12 12 12 13 11 9 9 10 10 10 10 9 9 9 9 7 6 6 6 6 7 7 7 6 5 5 5 6 6 6 5 4 5 6 8 8 9 10 10 10
11 11 11 10 10 10 11 12 13 11 8 7 9 10 10 9 9 9 9 8 7 6 6 6 6 6 6 6 6 6 6 6 6 5 4 4 3 4 5 7 7 8 9 9 10
11 11 11 10 9 10 11 12 12 9 6 6 8 10 10 9 8 9 9 8 7 6 6 6 6 6 6 6 6 6 6 6 6 4 4 3 3 3 5 6 7 8 8 9 10
11 11 11 11 10 10 12 11 9 6 4 6 7 8 8 8 7 7 7 7 6 6 5 6 6 6 6 6 7 7 6 5 4 3 3 3 3 3 4 6 6 7 8 9 9
11 11 11 11 10 11 11 9 7 5 5 5 6 7 7 7 7 6 6 6 5 5 4 5 5 6 6 6 6 6 5 3 2 1 2 3 3 3 5 6 7 7 8 9 9
10 11 11 10 10 10 10 7 5 4 5 5 5 6 6 6 6 5 5 5 5 4 4 4 4 5 6 6 5 5 4 3 2 1 2 2 3 4 5 6 7 7 8 9 9
10 11 10 10 9 9 8 6 5 4 5 5 5 5 5 5 5 5 5 5 5 5 4 4 4 5 6 6 6 5 5 4 3 2 1 2 3 4 5 6 7 7 8 9 9
10 10 9 9 9 8 7 6 5 5 5 5 5 4 4 4 5 5 5 5 5 5 5 4 4 5 5 6 6 5 5 4 4 2 1 1 2 3 5 6 6 7 7 8 8
9 9 8 8 8 8 7 6 5 5 5 5 5 4 4 4 5 5 5 5 5 5 5 5 4 4 5 5 5 5 5 4 4 3 1 1 2 3 5 6 6 6 7 8 8
8 8 7 7 8 8 7 6 6 5 5 5 5 5 4 4 4 4 4 5 5 5 5 5 4 4 4 5 5 5 5 4 4 3 2 2 2 4 5 6 6 6 7 8 8
9 8 7 7 7 7 7 7 6 6 6 5 5 5 4 4 4 4 4 5 5 5 5 5 4 3 3 4 5 5 5 4 4 3 2 2 2 4 5 6 6 7 7 8 8
8 8 7 7 7 7 7 6 6 6 6 6 5 5 4 4 4 4 4 4 5 5 5 5 4 3 3 4 4 4 4 4 4 3 2 2 3 4 5 6 6 7 7 8 9
7 7 7 7 6 6 6 6 6 6 6 6 5 4 4 3 4 4 4 4 4 5 5 4 4 4 4 4 5 4 4 5 4 4 3 3 4 4 5 6 6 7 8 9 10
6 6 7 7 6 6 7 7 6 6 6 6 5 4 4 3 3 3 4 4 4 4 4 4 4 4 4 5 5 4 4 4 4 4 4 4 4 5 6 6 7 7 8 9 10
5 6 6 7 6 6 7 7 7 7 6 6 5 4 4 4 3 3 3 3 3 4 4 4 4 4 4 4 4 3 3 4 4 5 5 4 5 5 6 6 7 8 8 9 10